Weather History for Randolph AFB, TX

Change the Weather History Date:

Sunday, September 22, 2013

  Actual Average Record
Temperature  
Mean Temperature 71 °F -  
Max Temperature 85 °F 85 °F 96 °F (2000)
Min Temperature 58 °F 65 °F 58 °F (2013)
Cooling Degree Days 6    
Growing Degree Days 21 (Base 50)    
Moisture  
Dew Point 49 °F    
Average Humidity 50    
Maximum Humidity 77    
Minimum Humidity 22    
Precipitation  
Precipitation 0.00 in - - ()
Sea Level Pressure  
Sea Level Pressure 29.84 in    
Wind  
Wind Speed 7 mph (NNE)    
Max Wind Speed 10 mph    
Max Gust Speed 16 mph    
Visibility 10 miles    
Events      
Averages and records for this station are not official NWS values.
T = Trace of Precipitation, MM = Missing Value Source: NWS Daily Summary

Daily Weather History Graph

Daily Weather History Graph

Search for Another Location

Airport:

Trip Planner

Search our weather history database for the weather conditions in past years. The results will help you decide how hot, cold, wet, or windy it might be!

Date:

Astronomy

Sep. 22, 2013 Rise Set
Actual Time 7:21 AM CDT 7:29 PM CDT
Civil Twilight 6:57 AM CDT 7:53 PM CDT
Nautical Twilight 6:30 AM CDT 8:20 PM CDT
Astronomical Twilight 6:02 AM CDT 8:48 PM CDT
Moon 9:39 PM CDT (9/22) 10:25 AM CDT (9/22)
Length of Visible Light 12h 55m
Length of Day
12h 07m
Waning Gibbous, 88% of the Moon is Illuminated
Sep 22
Waning Gibbous
Sep 26
Last Quarter
Oct 4
New
Oct 11
First Quarter
Oct 18
Full

Hourly Weather History & Observations

Time (CDT) Temp. Dew Point Humidity Pressure Visibility Wind Dir Wind Speed Gust Speed Precip Events Conditions
12:58 AM 61.0 °F 53.1 °F 75% 29.87 in 10.0 mi NNW 6.9 mph - N/A   Clear
1:58 AM 59.7 °F 52.3 °F 77% 29.87 in 10.0 mi NNW 5.8 mph - N/A   Clear
2:58 AM 59.7 °F 52.0 °F 76% 29.86 in 10.0 mi NNW 6.9 mph - N/A   Clear
3:58 AM 59.5 °F 51.1 °F 74% 29.84 in 10.0 mi NNW 6.9 mph - N/A   Clear
4:58 AM 58.8 °F 50.9 °F 75% 29.84 in 10.0 mi NNW 6.9 mph - N/A   Clear
5:58 AM 58.5 °F 50.4 °F 74% 29.86 in 10.0 mi NNW 8.1 mph - N/A   Clear
6:58 AM 58.5 °F 50.7 °F 75% 29.86 in 10.0 mi NNW 6.9 mph - N/A   Clear
7:58 AM 59.9 °F 50.9 °F 72% 29.87 in 10.0 mi NNW 6.9 mph - N/A   Clear
8:58 AM 66.9 °F 52.0 °F 59% 29.88 in 10.0 mi North 5.8 mph - N/A   Clear
9:58 AM 72.5 °F 52.3 °F 49% 29.91 in 10.0 mi NE 10.4 mph - N/A   Clear
10:58 AM 75.6 °F 52.0 °F 44% 29.91 in 10.0 mi NE 9.2 mph - N/A   Clear
11:58 AM 77.2 °F 52.2 °F 42% 29.90 in 10.0 mi NNE 10.4 mph - N/A   Clear
12:58 PM 80.1 °F 49.8 °F 35% 29.88 in 10.0 mi NNE 9.2 mph - N/A   Clear
1:58 PM 82.8 °F 49.8 °F 32% 29.86 in 10.0 mi ENE 9.2 mph 16.1 mph N/A   Clear
2:58 PM 83.7 °F 46.9 °F 28% 29.83 in 10.0 mi NE 10.4 mph - N/A   Clear
3:58 PM 84.7 °F 42.3 °F 22% 29.79 in 10.0 mi ENE 9.2 mph - N/A   Clear
4:58 PM 84.6 °F 42.3 °F 23% 29.78 in 10.0 mi East 10.4 mph - N/A   Clear
5:58 PM 83.8 °F 43.7 °F 24% 29.78 in 10.0 mi ENE 8.1 mph - N/A   Clear
6:58 PM 80.8 °F 44.8 °F 28% 29.78 in 10.0 mi ENE 5.8 mph - N/A   Clear
7:58 PM 75.2 °F 46.2 °F 36% 29.79 in 10.0 mi East 4.6 mph - N/A   Clear
8:43 PM 69.8 °F 48.2 °F 46% 29.81 in 8.0 mi ENE 3.5 mph - N/A   Clear
8:53 PM 71.6 °F 48.2 °F 43% 29.81 in 10.0 mi ENE 3.5 mph - N/A   Clear
8:58 PM 71.2 °F 47.8 °F 43% 29.80 in 9.0 mi ENE 3.5 mph - N/A   Clear
9:58 PM 69.8 °F 48.9 °F 47% 29.81 in 10.0 mi NE 4.6 mph - N/A   Clear
10:58 PM 67.8 °F 48.2 °F 49% 29.81 in 10.0 mi NE 3.5 mph - N/A   Clear
11:58 PM 65.8 °F 49.8 °F 56% 29.81 in 10.0 mi North 2.3 mph - N/A   Clear